Location: Squirrel Cove
(50.1074°N, 124.9139°W)
Time: 19:33:19
(UTC-08:00)

Envisat - Pass Details

Date: 02 December 2022
Orbit: 763 x 765 km, 98.2° (Epoch: 05 February)

Event Time Altitude Azimuth Distance (km) Brightness Sun altitude
Rises 06:56:31 0° 359° (N) 3,247 6.0 -9.5°
Reaches altitude 10° 07:01:22 10° 318° (NW) 2,314 4.9 -8.8°
Maximum altitude 07:01:55 10° 311° (NW) 2,301 4.9 -8.7°
Enters shadow 07:02:21 10° 307° (NW) 2,307 4.8 -8.7°
